Waarnemingen

Advertentie
Mijn weer
Gotska sandoen, Zweden (2589): temperatuur & dauwpunt: 19.05.2018 12:00:00 - 25.05.2018 12:00:00 (CEST)Gotska sandoen, Zweden (2589): windsnelheid & windstoten: 19.05.2018 12:00:00 - 25.05.2018 12:00:00 (CEST)Gotska sandoen, Zweden (2589): windrichting: 19.05.2018 12:00:00 - 25.05.2018 12:00:00 (CEST)Gotska sandoen, Zweden (2589): luchtdruk: 19.05.2018 12:00:00 - 25.05.2018 12:00:00 (CEST)Gotska sandoen, Zweden (2589): zicht: 19.05.2018 12:00:00 - 25.05.2018 12:00:00 (CEST)Gotska sandoen, Zweden (2589): neerslag: 19.05.2018 12:00:00 - 25.05.2018 12:00:00 (CEST)
Datum & Tijd tt [°C] td [°C] ff [km/u] ff [kn] fx [km/u] fx [kn] dd ppp [hPa] vv [km] rr [mm]
25.05.2018 12:00:00 16,3 10,2 14 7 27 15 O 1029,3 28 0,0
25.05.2018 11:00:00 16,0 10,3 16 8 25 14 O 1029,4 42 0,0
25.05.2018 10:00:00 15,0 9,8 13 7 23 12 ONO 1029,4 39 0,0
25.05.2018 09:00:00 13,9 9,5 12 7 21 12 ONO 1029,3 47 0,0
25.05.2018 08:00:00 14,0 9,4 9 5 19 10 ONO 1029,3 50 0,0
25.05.2018 07:00:00 12,6 9,1 10 6 21 11 ONO 1029,3 50 0,0
25.05.2018 06:00:00 12,2 8,5 11 6 20 11 O 1029,1 50 0,0
25.05.2018 05:00:00 10,8 7,5 13 7 20 11 O 1029,1 50 0,0
25.05.2018 04:00:00 8,5 6,8 13 7 20 11 ONO 1029,1 50 0,0
25.05.2018 03:00:00 7,7 6,6 10 5 16 9 ONO 1029,2 50 0,0
25.05.2018 02:00:00 7,4 5,9 9 5 15 8 ONO 1029,2 50 0,0
25.05.2018 01:00:00 8,1 5,7 10 6 21 11 ONO 1029,1 50 0,0
25.05.2018 00:00:00 10,5 6,6 13 7 22 12 ONO 1028,9 50 0,0
24.05.2018 23:00:00 9,8 7,1 11 6 16 9 ONO 1029,0 50 0,0
24.05.2018 22:00:00 8,7 6,3 9 5 13 7 NO 1029,1 50 0,0
24.05.2018 21:00:00 9,6 6,1 5 3 16 9 ONO 1029,1 50 0,0
24.05.2018 20:00:00 11,2 6,3 9 5 15 8 NO 1029,0 50 0,0
24.05.2018 19:00:00 11,8 7,1 10 5 19 10 NO 1029,3 50 0,0
24.05.2018 18:00:00 12,6 7,1 9 5 20 11 NO 1029,5 50 0,0
24.05.2018 17:00:00 13,5 7,3 11 6 18 10 NNO 1029,7 50 0,0
24.05.2018 16:00:00 16,0 7,0 10 5 18 10 NO 1030,2 50 0,0
24.05.2018 15:00:00 16,6 7,8 10 6 21 12 NNO 1030,6 43 0,0
24.05.2018 14:00:00 17,3 6,5 12 6 23 12 NNO 1031,0 43 0,0
24.05.2018 13:00:00 16,1 7,1 14 8 24 13 NO 1031,3 43 0,0
24.05.2018 12:00:00 15,5 8,0 11 6 22 12 NNO 1031,2 36 0,0
24.05.2018 11:00:00 15,2 8,0 10 5 21 12 NO 1031,3 43 0,0
24.05.2018 10:00:00 14,3 8,0 13 7 21 12 NO 1031,2 42 0,0
24.05.2018 09:00:00 12,3 8,0 12 6 25 14 NO 1031,1 50 0,0
24.05.2018 08:00:00 12,3 8,2 14 8 24 13 NO 1030,6 50 0,0
24.05.2018 07:00:00 10,6 7,5 11 6 21 11 NNO 1030,5 50 0,0
24.05.2018 06:00:00 9,2 7,5 7 4 17 9 N 1030,1 50 0,0
24.05.2018 05:00:00 8,1 6,9 6 3 19 11 N 1029,5 50 0,0
24.05.2018 04:00:00 7,3 6,1 7 4 18 10 NNO 1029,2 50 0,0
24.05.2018 03:00:00 7,3 5,8 6 3 18 10 NO 1028,9 50 0,0
24.05.2018 02:00:00 7,8 5,8 7 4 21 11 NO 1028,6 50 0,0
24.05.2018 01:00:00 8,6 6,2 9 5 22 12 NNO 1028,6 50 0,0
24.05.2018 00:00:00 9,1 6,9 11 6 21 11 NNO 1028,5 50 0,0
23.05.2018 23:00:00 9,0 7,0 8 4 21 11 NO 1028,3 50 0,0
23.05.2018 22:00:00 9,5 7,4 8 5 22 12 NNO 1027,9 42 0,0
23.05.2018 21:00:00 10,4 8,2 9 5 21 12 NNO 1027,2 42 0,0
23.05.2018 20:00:00 11,0 8,0 10 6 24 13 NNO 1026,7 50 0,0
23.05.2018 19:00:00 11,9 7,8 11 6 26 14 NNO 1026,3 50 0,0
23.05.2018 18:00:00 13,4 8,2 8 5 24 13 N 1026,0 50 0,0
23.05.2018 17:00:00 14,4 10,4 9 5 21 11 NO 1025,9 38 0,0
23.05.2018 16:00:00 16,3 10,6 9 5 23 12 ONO 1025,5 40 0,0
23.05.2018 15:00:00 18,7 12,0 10 5 16 9 NNO 1024,9 44 0,0
23.05.2018 14:00:00 17,9 11,2 8 5 23 12 NNW 1024,7 44 0,0
23.05.2018 13:00:00 19,0 11,3 11 6 25 14 WNW 1024,2 45 0,0
23.05.2018 12:00:00 18,9 9,9 16 9 28 15 WZW 1023,2 40 0,0
23.05.2018 11:00:00 16,5 10,6 16 9 26 14 ZW 1022,7 31 0,0
23.05.2018 10:00:00 16,9 10,5 10 6 20 11 ZW 1022,4 27 0,0
23.05.2018 09:00:00 16,8 9,5 9 5 16 9 ZW 1022,0 41 0,0
23.05.2018 08:00:00 14,9 10,3 11 6 20 11 ZW 1021,4 50 0,0
23.05.2018 07:00:00 13,5 9,9 11 6 19 10 ZW 1021,0 41 0,0
23.05.2018 06:00:00 13,3 9,2 11 6 17 9 ZW 1020,4 50 0,0
23.05.2018 05:00:00 11,1 8,8 12 6 18 10 ZW 1020,1 46 0,0
23.05.2018 04:00:00 11,5 8,9 14 8 20 11 ZW 1019,8 48 0,0
23.05.2018 03:00:00 12,1 7,6 13 7 19 10 ZZW 1019,5 50 0,0
23.05.2018 02:00:00 12,0 7,7 11 6 17 9 ZZW 1019,3 50 0,0
23.05.2018 01:00:00 11,3 5,8 6 4 11 6 W 1019,0 50 0,0
23.05.2018 00:00:00 11,5 6,0 10 5 13 7 WZW 1019,0 50 0,0
22.05.2018 23:00:00 11,6 5,7 11 6 16 8 ZW 1018,9 50 0,0
22.05.2018 22:00:00 11,2 5,3 11 6 16 8 ZZW 1018,9 50 0,0
22.05.2018 21:00:00 13,3 5,7 5 3 15 8 Z 1018,9 43 0,0
22.05.2018 20:00:00 15,3 6,0 0 0 12 7 N 1018,7 50 0,0
22.05.2018 19:00:00 16,7 6,8 6 4 16 9 ZO 1018,9 50 0,0
22.05.2018 18:00:00 15,9 8,1 11 6 15 8 O 1019,0 50 0,0
22.05.2018 17:00:00 15,4 10,4 7 4 14 8 O 1019,3 50 0,0
22.05.2018 16:00:00 16,6 10,4 6 4 15 8 ONO 1019,5 50 0,0
22.05.2018 15:00:00 17,5 8,9 4 2 10 5 NO 1019,8 50 0,0
22.05.2018 14:00:00 19,3 7,4 4 2 12 6 NNO 1020,1 35 0,0
22.05.2018 13:00:00 18,0 11,3 5 3 19 10 NO 1020,5 36 0,0
22.05.2018 12:00:00 17,7 9,6 5 3 9 5 NO 1020,9 43 0,0
22.05.2018 11:00:00 16,7 10,1 6 3 15 8 ONO 1021,4 46 0,0
22.05.2018 10:00:00 19,1 9,0 4 2 10 5 N 1021,5 42 0,0
22.05.2018 09:00:00 17,3 9,2 4 2 9 5 ONO 1021,7 43 0,0
22.05.2018 08:00:00 19,3 6,1 4 2 19 10 ZO 1021,9 50 0,0
22.05.2018 07:00:00 16,6 6,1 12 6 23 13 ZZO 1022,2 50 0,0
22.05.2018 06:00:00 13,5 6,8 14 8 25 14 ZZO 1022,5 50 0,0
22.05.2018 05:00:00 11,2 6,3 13 7 21 11 ZO 1022,8 50 0,0
22.05.2018 04:00:00 10,8 5,3 12 7 18 10 O 1023,1 50 0,0
22.05.2018 03:00:00 10,6 3,6 12 6 16 9 O 1023,4 50 0,0
22.05.2018 02:00:00 10,8 4,3 12 7 20 11 OZO 1023,9 50 0,0
22.05.2018 01:00:00 11,1 3,9 11 6 19 10 OZO 1024,4 50 0,0
22.05.2018 00:00:00 12,0 3,2 11 6 16 9 ZO 1024,7 50 0,0
21.05.2018 23:00:00 12,0 2,7 9 5 15 8 ZZO 1025,0 50 0,0
21.05.2018 22:00:00 12,3 3,5 10 6 16 9 ZZO 1025,3 41 0,0
21.05.2018 21:00:00 13,1 7,1 6 4 10 5 ZZO 1025,4 50 0,0
21.05.2018 20:00:00 14,0 7,1 0 0 4 2 N 1025,3 50 0,0
21.05.2018 19:00:00 13,9 9,7 2 1 5 3 N 1025,4 50 0,0
21.05.2018 18:00:00 15,2 10,0 0 0 12 7 N 1026,0 50 0,0
21.05.2018 17:00:00 15,3 8,1 7 4 15 8 ONO 1026,3 50 0,0
21.05.2018 16:00:00 20,0 5,2 8 4 19 10 ZZW 1026,9 50 0,0
21.05.2018 15:00:00 19,2 5,6 11 6 24 13 ZZW 1027,3 43 0,0
21.05.2018 14:00:00 18,9 6,7 10 6 25 14 ZZW 1027,9 42 0,0
21.05.2018 13:00:00 18,7 6,5 16 8 26 14 Z 1028,2 39 0,0
21.05.2018 12:00:00 18,3 8,3 8 4 12 7 Z 1028,4 37 0,0
21.05.2018 11:00:00 15,9 8,6 5 3 12 7 Z 1028,9 50 0,0
21.05.2018 10:00:00 17,2 9,4 3 2 8 5 NW 1028,6 47 0,0
21.05.2018 09:00:00 15,5 8,7 4 2 15 8 W 1028,5 47 0,0
21.05.2018 08:00:00 14,0 8,0 10 5 22 12 W 1028,4 50 0,0
21.05.2018 07:00:00 13,3 7,9 14 8 24 13 WZW 1028,3 50 0,0
21.05.2018 06:00:00 12,0 7,7 16 9 26 14 WZW 1028,1 50 0,0
21.05.2018 05:00:00 11,3 7,6 18 10 28 15 WZW 1027,9 50 0,0
21.05.2018 04:00:00 10,9 7,4 19 10 31 17 ZW 1027,9 50 0,0
21.05.2018 03:00:00 10,4 7,1 16 9 28 15 ZW 1027,7 50 0,0
21.05.2018 02:00:00 11,3 6,8 16 9 32 17 WZW 1027,6 50 0,0
21.05.2018 01:00:00 10,6 6,9 16 8 31 17 ZW 1027,7 50 0,0
21.05.2018 00:00:00 11,7 6,6 21 12 35 19 ZW 1027,6 50 0,0
20.05.2018 23:00:00 11,5 6,6 21 12 37 20 ZW 1027,6 50 0,0
20.05.2018 22:00:00 10,8 6,9 18 10 25 13 ZW 1027,5 50 0,0
20.05.2018 21:00:00 11,2 7,1 13 7 27 14 ZZW 1027,3 50 0,0
20.05.2018 20:00:00 12,0 7,3 14 8 24 13 ZZW 1026,8 50 0,0
20.05.2018 19:00:00 12,5 7,2 14 8 26 14 ZW 1026,9 50 0,0
20.05.2018 18:00:00 13,5 7,0 13 7 27 15 ZW 1027,0 50 0,0
20.05.2018 17:00:00 13,9 6,5 17 9 35 19 ZW 1027,6 47 0,0
20.05.2018 16:00:00 16,1 5,4 19 10 33 18 ZW 1027,6 32 0,0
20.05.2018 15:00:00 16,9 6,7 18 10 29 16 ZW 1027,8 41 0,0
20.05.2018 14:00:00 17,2 6,4 18 10 29 16 ZW 1027,9 37 0,0
20.05.2018 13:00:00 16,9 7,0 18 10 27 15 WZW 1027,8 38 0,0
20.05.2018 12:00:00 15,5 7,5 15 8 26 14 ZW 1028,1 37 0,0
20.05.2018 11:00:00 15,0 7,3 15 8 24 13 WZW 1027,9 45 0,0
20.05.2018 10:00:00 14,5 7,8 14 8 22 12 WZW 1027,7 38 0,0
20.05.2018 09:00:00 13,9 7,9 11 6 23 12 WZW 1027,1 49 0,0
20.05.2018 08:00:00 13,0 7,7 12 6 21 11 WZW 1027,1 50 0,0
20.05.2018 07:00:00 11,5 7,2 14 7 26 14 WZW 1026,8 50 0,0
20.05.2018 06:00:00 10,2 7,1 16 8 26 14 ZW 1026,3 50 0,0
20.05.2018 05:00:00 9,5 6,6 17 9 28 15 ZW 1025,7 50 0,0
20.05.2018 04:00:00 9,5 6,2 20 11 28 15 ZW 1025,3 50 0,0
20.05.2018 03:00:00 9,0 6,3 18 10 25 14 ZW 1025,2 50 0,0
20.05.2018 02:00:00 9,1 5,7 18 10 24 13 ZW 1024,9 50 0,0
20.05.2018 01:00:00 8,6 5,2 16 9 23 12 WZW 1024,6 50 0,0
20.05.2018 00:00:00 9,0 4,8 17 9 24 13 WZW 1024,4 50 0,0
19.05.2018 23:00:00 9,1 5,7 17 9 26 14 WZW 1024,1 50 0,0
19.05.2018 22:00:00 8,9 5,3 16 9 23 12 WZW 1024,0 50 0,0
19.05.2018 21:00:00 9,5 4,7 12 7 17 9 ZW 1023,8 50 0,0
19.05.2018 20:00:00 11,1 3,6 9 5 17 9 WZW 1023,6 50 0,0
19.05.2018 19:00:00 11,7 4,7 10 5 18 10 WZW 1023,7 50 0,0
19.05.2018 18:00:00 13,6 2,8 6 4 17 9 W 1024,0 50 0,0
19.05.2018 17:00:00 14,3 1,2 6 4 15 8 W 1024,0 50 0,0
19.05.2018 16:00:00 15,7 1,0 4 2 8 4 NNO 1023,8 50 0,0
19.05.2018 15:00:00 15,4 2,5 3 2 11 6 N 1024,0 42 0,0
19.05.2018 14:00:00 14,5 4,5 6 4 13 7 NNO 1024,2 48 0,0
19.05.2018 13:00:00 12,8 6,6 6 3 15 8 N 1024,1 34 0,0
19.05.2018 12:00:00 12,7 6,3 7 4 17 9 N 1024,0 39 0,0

tt = temperatuur
td = dauwpunt
ff = windsnelheid
fx = windstoten
dd = windrichting
ppp = luchtdruk
vv = zicht
rr = neerslag

Weerstations in de omgeving